Flag Weather past 2 weeks in Emden, Lower Saxony, Germany

Now
46 °F

Clear.


Feels Like: 44 °F
Forecast: 41 / 49 °F
Wind: 5 mph from West

Location: Emden-Koenigspolder

Current Time: Nov 24, 2014 at 5:31:57 PM

Latest Report: Nov 24, 2014 at 5:00 PM


Visibility: 31 mi

Pressure: 30.22 "Hg

Humidity: 84%

Dew point: 42 °F

Location of EmdenLocation

Historic Weather in Emden — Graph

°F

Emden temperature yesterday

Maximum temperature yesterday: 54 °F (at 2:00 PM)
Minimum temperature yesterday: 43 °F (at 1:00 AM)
Average temperature yesterday: 48 °F

Past Weeks' High & Low Weather Summary

 TemperatureHumidityPressure
High54 °F (Nov 23, 2:00 PM)100% (Nov 13, 3:00 AM)30.37 "Hg (Nov 13, 3:00 AM)
Low28 °F (Nov 21, 6:00 AM)74% (Nov 20, 1:00 PM)29.47 "Hg (Nov 16, 2:00 PM)
Average46 °F92%29.89 "Hg
* Reported Nov 9 3:00 PM — Nov 24 3:00 PM, Emden, Weather by CustomWeather, © 2014

Note: Actual official high and low records may vary slightly from our data, if they occured in-between our weather recording intervals... More about our weather records

Advertising

Emden weather history for previous 24 hours

 ConditionsComfort  
Time TempWeatherWind HumidityBarometerVisibility
3:00 PM
Nov 24
50 °FOvercast.6 mph75%30.21 "Hg19 mi
2:00 PM50 °FOvercast.6 mph75%30.19 "Hg22 mi
1:00 PM50 °FSunny.7 mph74%30.19 "Hg6 mi
12:00 PM49 °FPartly sunny.6 mph76%30.19 "Hg28 mi
11:00 AM47 °FSunny.6 mph79%30.18 "Hg11 mi
9:00 AM43 °FSunny.5 mph87%30.13 "Hg28 mi
8:00 AM45 °FPassing clouds.3 mph91%30.11 "Hg31 mi
7:00 AM46 °FLow clouds.5 mph91%30.08 "Hg43 mi
6:00 AM47 °FOvercast.5 mph94%30.06 "Hg25 mi
5:00 AM47 °FLight rain. Low clouds.7 mph95%30.02 "Hg5 mi
3:00 AM48 °FLight freezing rain. Low clouds.5 mph97%29.97 "Hg12 mi
2:00 AM49 °FLight rain. Low clouds.7 mph96%29.96 "Hg4 mi
1:00 AM50 °FDrizzle. Low clouds.7 mph96%29.93 "Hg7 mi
12:00 AM51 °FLow clouds.N/A97%29.92 "Hg2 mi
11:00 PM
Nov 23
52 °FOvercast.5 mph88%29.90 "Hg11 mi
9:00 PM51 °FOvercast.3 mph89%29.90 "Hg10 mi
8:00 PM51 °FOvercast.3 mph91%29.91 "Hg8 mi
7:00 PM50 °FOvercast.3 mph92%29.92 "Hg7 mi
6:00 PM50 °FOvercast.5 mph91%29.93 "Hg8 mi
5:00 PM52 °FOvercast.5 mph88%29.93 "Hg9 mi
Weather by CustomWeather, © 2014

See weather overviewHow to use our weather pages